Location: Unspecified
(38.0989°N, 0.6729°W)
Time: 22:37:43
(UTC+01:00)

Envisat - Visible Passes

Search period start: 25 February 2018 00:00
Search period end: 07 March 2018 00:00
Orbit: 764 x 766 km, 98.2° (Epoch: 25 February)

Date Brightness Start Highest point End Pass type
(mag) Time Alt. Az. Time Alt. Az. Time Alt. Az.
25 Feb 3.2 20:44:05 10° S 20:49:08 72° WSW 20:54:13 10° NNW visible
26 Feb 3.1 20:07:36 10° SSE 20:12:29 50° ENE 20:17:23 10° N visible
26 Feb 5.6 21:48:29 10° SW 21:51:45 17° W 21:55:02 10° NW visible
27 Feb 4.1 19:32:08 10° ESE 19:36:02 23° ENE 19:39:57 10° NNE visible
27 Feb 4.3 21:10:04 10° SSW 21:14:47 39° W 21:19:32 10° NNW visible
28 Feb 2.9 20:32:55 10° SSE 20:38:00 90° ENE 20:43:06 10° NNW visible
01 Mar 3.4 19:56:43 10° SE 20:01:24 39° ENE 20:06:06 10° N visible
01 Mar 5.2 21:36:39 10° SW 21:40:32 22° W 21:44:25 10° NW visible
02 Mar 4.4 19:21:37 10° ESE 19:25:01 18° ENE 19:28:25 10° NNE visible
02 Mar 3.8 20:58:42 10° S 21:03:36 50° W 21:08:33 10° NNW visible
03 Mar 2.9 20:21:50 10° SSE 20:26:53 71° ENE 20:31:57 10° N visible
03 Mar 5.9 22:04:34 10° WSW 22:06:22 12° W 22:08:10 10° WNW visible
04 Mar 3.7 19:45:55 10° SE 19:50:21 31° ENE 19:54:47 10° N visible
04 Mar 4.9 21:25:01 10° SSW 21:29:18 28° W 21:33:38 10° NW visible
05 Mar 3.3 20:47:25 10° S 20:52:26 65° WSW 20:57:30 10° NNW visible
06 Mar 3.1 20:10:50 10° SSE 20:15:46 55° ENE 20:20:45 10° N visible
06 Mar 5.7 21:52:09 10° SW 21:55:07 15° W 21:58:04 10° NW visible
